Location: Newark
(52.3500°N, 175.9667°E)
Time: 13:49:16
(UTC+00:00)

N. Korean satellite - Pass Details

Date: 24 November 2019
Orbit: 455 x 507 km, 97.2° (Epoch: 14 December)

Event Time Altitude Azimuth Distance (km) Brightness Sun altitude
Rises 05:11:53 0° 168° (SSE) 2,582 10.4 -8.7°
Reaches altitude 10° 05:13:57 10° 170° (S) 1,709 9.5 -9.0°
Maximum altitude 05:17:38 79° 256° (WSW) 522 6.8 -9.5°
Drops below altitude 10° 05:21:24 10° 345° (NNW) 1,736 9.3 -10.1°
Sets 05:23:30 0° 346° (NNW) 2,628 10.2 -10.4°
